Location: Champseau
(45.8333°N, 1.7667°E)
Time: 18:23:27
(UTC+00:00)

Cosmos 2237 Rocket - Pass Details

Date: 18 April 2021
Orbit: 836 x 849 km, 71.0° (Epoch: 12 May)

Event Time Altitude Azimuth Distance (km) Brightness Sun altitude
Rises 21:17:49 0° 330° (NNW) 3,403 6.7 -23.3°
Reaches altitude 10° 21:20:18 10° 327° (NNW) 2,463 5.7 -23.6°
Maximum altitude 21:25:49 58° 250° (WSW) 973 2.5 -24.2°
Enters shadow 21:27:17 44° 199° (SSW) 1,141 2.6 -24.4°
